GFSFLT2_sfc_thetae_000.txt.gz
Theta_e
342 342 341 338 336 335 336 338 338 339 340 340 339 339 336 335 335 334 333 333 334 336 336 336 337 337 337 336 335 336 333 333
339 340 341 338 333 333 333 336 337 337 338 338 339 336 333 331 331 331 331 332 329 327 325 332 334 334 334 334 332 333 331 330
340 340 341 340 338 334 335 336 336 335 334 335 333 337 333 330 329 330 329 328 328 326 323 325 328 330 332 332 331 328 327 328
329 335 338 338 335 332 340 338 336 336 336 335 334 333 330 329 329 329 328 326 325 324 323 322 321 320 323 329 325 323 322 327
324 331 335 338 336 336 336 335 335 334 334 333 331 329 328 327 327 327 326 323 323 322 321 320 319 319 319 322 325 324 324 321
322 329 332 332 332 330 331 329 329 328 328 329 329 327 325 324 324 323 323 323 322 321 318 317 317 319 319 318 321 324 325 325
320 324 328 330 328 328 326 324 322 321 323 323 325 324 324 324 322 322 321 322 321 322 320 318 318 319 320 320 319 320 324 324
320 321 325 325 326 325 323 321 318 318 319 321 323 323 322 322 319 319 318 318 319 320 321 322 321 321 320 322 321 319 321 323
317 318 321 321 322 321 320 316 315 315 318 319 319 320 316 315 314 314 315 316 316 315 314 314 316 321 321 322 323 322 322 323
315 313 316 317 318 315 315 314 315 315 318 317 316 316 315 314 313 312 311 312 310 308 307 308 311 313 315 314 315 319 322 323
313 312 311 314 314 313 313 313 312 314 316 314 314 312 312 310 310 310 309 307 306 305 304 303 302 303 305 308 308 310 315 321
313 312 312 313 312 312 311 311 311 311 312 312 312 310 309 308 309 308 307 306 305 305 304 304 303 303 302 301 302 305 311 318
311 310 311 309 309 308 307 307 309 310 310 311 311 310 309 308 307 306 307 305 304 304 303 302 301 303 300 299 300 301 302 307
310 310 310 309 308 308 308 309 308 309 309 310 310 310 309 308 307 305 305 304 304 304 303 300 301 302 299 297 294 296 301 303
311 310 310 310 309 308 308 308 307 305 305 307 309 309 310 309 308 306 305 305 303 303 302 301 298 300 300 298 293 292 295 298
312 311 310 310 310 306 306 303 301 303 304 305 306 309 308 308 308 307 305 305 303 304 303 303 301 297 300 302 299 298 294 293
312 312 311 310 310 308 306 304 304 305 305 306 305 306 306 306 306 305 304 304 303 302 302 302 301 299 299 298 298 298 298 296
314 312 310 311 310 309 307 304 305 304 304 302 303 303 303 304 303 301 301 301 300 299 299 299 299 298 298 298 297 296 295 295
313 312 309 310 310 309 307 306 305 304 304 302 301 299 299 299 299 298 298 297 298 297 296 296 296 296 295 295 296 296 297 296
311 310 309 309 309 309 308 307 305 304 303 300 298 297 297 298 297 297 297 297 296 296 295 295 295 295 295 296 296 296 296 296

GFSFLT2_sfc_thetae_003.txt.gz
Theta_e
336 337 337 336 334 334 335 335 337 339 339 338 337 335 336 336 335 335 335 335 337 336 336 335 337 336 336 335 335 336 334 334
336 335 334 330 328 331 332 334 335 336 338 338 333 332 333 333 332 332 333 332 331 330 332 333 333 333 333 332 332 332 330 329
331 332 334 331 329 331 333 334 334 334 335 335 332 329 327 325 329 330 330 331 330 327 328 331 330 329 329 329 329 326 326 327
324 326 328 330 333 330 331 334 332 331 330 329 329 325 324 325 327 329 327 326 326 326 325 325 323 319 320 326 324 323 322 320
319 325 326 326 326 330 330 328 329 327 326 325 322 323 322 323 322 322 320 322 320 321 321 320 319 318 318 318 321 323 322 323
318 322 323 322 321 320 320 324 322 322 323 324 322 320 319 319 317 318 318 318 317 320 316 315 315 317 316 316 318 319 321 321
315 319 320 322 319 317 315 314 313 313 316 316 318 319 318 318 318 317 318 318 318 316 316 315 314 316 317 316 317 318 319 320
311 314 317 318 318 315 313 310 310 311 312 315 317 315 314 314 315 316 314 314 314 312 311 312 315 318 318 317 318 318 318 318
309 309 314 313 316 315 312 309 310 309 312 313 313 314 310 309 307 308 308 311 312 311 310 309 309 312 313 316 318 321 322 320
307 309 310 309 311 312 310 306 306 308 312 312 312 312 312 309 308 306 305 305 306 302 302 301 303 303 304 308 311 311 313 317
305 301 303 306 306 306 306 306 305 307 311 310 310 309 309 305 306 305 304 304 302 302 301 300 298 299 299 300 299 301 305 308
305 304 303 305 305 304 304 303 304 305 308 308 309 307 306 303 305 305 303 302 302 301 300 301 300 299 302 300 298 300 302 304
303 303 303 303 301 301 300 300 302 303 303 307 307 306 305 303 302 303 303 301 301 300 300 299 298 299 297 297 297 298 298 300
302 303 303 302 302 301 301 300 301 302 303 304 306 305 305 304 303 300 301 300 299 299 300 298 298 299 296 295 292 295 297 299
304 303 303 303 302 301 301 301 301 299 300 302 303 305 305 304 303 302 301 300 299 300 298 297 295 298 298 296 293 291 294 297
305 305 305 304 303 300 300 299 298 299 300 300 302 304 305 305 304 303 302 300 300 300 302 299 298 295 297 300 298 297 294 293
305 305 305 306 304 302 300 298 300 301 301 301 300 303 304 304 302 302 301 300 299 297 297 297 298 297 297 296 296 297 297 295
304 304 305 305 305 304 302 301 301 300 300 299 300 300 299 299 298 297 296 296 296 296 296 294 294 295 296 296 294 294 294 294
304 305 305 305 304 304 304 303 301 300 300 297 297 295 296 295 296 296 296 296 296 296 295 294 294 293 293 294 295 294 294 293
304 305 306 305 304 303 304 303 303 302 301 298 294 294 295 295 295 295 295 295 295 295 294 293 293 293 292 292 294 295 296 295

GFSFLT2_sfc_thetae_006.txt.gz
Theta_e
334 335 336 336 335 334 334 336 338 339 338 338 337 336 336 336 336 336 336 336 336 333 333 332 332 335 334 333 333 334 334 333
331 331 331 327 326 332 332 333 335 337 336 335 333 333 333 333 333 334 333 333 333 332 334 334 334 334 333 332 331 331 329 329
332 331 331 326 324 329 332 334 334 334 336 333 329 327 326 326 328 331 331 330 328 327 327 328 327 326 327 328 328 326 325 325
325 328 329 328 330 329 328 332 330 329 330 330 328 324 322 324 327 329 327 326 326 326 326 325 322 318 318 321 322 323 322 321
322 324 324 322 325 327 328 327 327 327 326 325 322 321 321 321 319 320 317 321 317 318 317 317 316 316 316 316 317 318 320 322
319 321 321 319 318 325 325 324 325 323 323 322 320 318 317 317 316 317 315 315 315 314 314 314 312 313 314 314 314 315 316 318
316 319 320 319 316 314 313 313 315 314 315 316 320 318 316 317 316 314 315 315 314 313 316 318 317 317 317 315 315 315 316 317
315 316 318 319 315 313 310 310 309 310 312 314 317 316 315 315 314 315 313 312 311 309 308 307 308 310 313 318 319 318 317 317
311 313 314 313 315 313 310 308 308 309 310 312 314 312 309 309 308 309 310 310 310 309 307 306 305 307 305 308 311 312 312 314
307 312 311 310 312 312 311 308 306 307 309 310 311 312 310 307 306 305 304 305 307 300 300 299 298 298 298 299 304 307 305 305
301 306 306 305 305 306 305 306 303 305 309 309 310 310 309 306 306 304 302 303 301 300 299 298 297 297 298 298 297 297 298 302
302 300 302 304 303 302 301 302 302 302 307 308 309 308 307 303 304 304 302 301 300 299 298 299 298 297 300 298 297 297 298 297
302 302 301 301 300 299 298 299 300 301 302 308 308 307 306 302 302 303 303 300 300 299 298 298 296 296 295 296 295 296 296 298
301 301 301 301 299 299 300 298 299 301 301 302 306 306 304 303 301 301 301 300 299 299 299 297 296 297 295 293 291 294 295 297
301 301 301 301 301 300 299 298 298 298 299 300 302 305 305 303 301 301 299 299 298 297 297 296 294 296 296 294 290 288 294 296
301 302 302 302 301 299 298 300 299 301 302 299 301 304 304 303 302 301 299 299 298 298 298 297 296 293 295 298 296 294 290 289
302 302 303 304 303 301 299 299 300 301 298 297 298 300 302 303 302 301 299 299 297 295 295 293 294 293 293 292 292 293 292 290
303 303 303 304 303 303 300 299 300 298 299 298 298 296 296 298 298 296 296 295 295 294 294 292 292 293 292 292 292 289 289 289
302 302 304 305 303 302 302 301 301 299 299 299 298 296 295 294 295 295 294 294 294 293 295 295 293 292 290 290 292 292 293 292
302 303 302 302 302 302 301 301 300 300 298 297 294 295 294 294 294 294 295 295 294 295 296 295 294 291 291 291 292 292 293 292

GFSFLT2_sfc_thetae_009.txt.gz
Theta_e
332 333 335 336 335 335 335 337 338 338 337 337 337 336 337 337 336 337 337 337 336 333 334 332 332 333 333 332 331 333 331 331
328 329 330 327 326 333 332 334 336 336 335 334 333 333 333 333 332 334 333 333 331 331 331 332 332 331 330 328 328 329 325 327
328 328 327 324 322 327 332 334 334 335 334 332 327 325 323 323 329 330 330 329 328 327 327 326 324 323 324 325 325 323 322 322
328 327 327 325 328 326 326 329 328 328 329 327 325 322 320 323 325 328 326 326 325 324 324 323 320 316 316 319 317 318 319 321
324 327 325 325 325 325 324 325 325 325 324 325 322 321 320 319 318 318 315 320 315 316 315 314 313 312 313 313 314 314 315 317
320 322 319 317 322 325 325 324 324 323 322 321 319 316 316 316 315 316 314 314 313 313 313 313 313 313 313 313 313 314 313 315
318 319 318 316 317 315 317 318 322 320 320 320 319 316 314 314 313 313 312 313 312 311 311 312 312 312 313 314 315 315 315 315
315 316 318 315 313 311 311 311 312 312 312 313 317 317 315 314 314 313 312 311 310 308 306 305 305 306 308 309 312 313 313 314
314 314 315 315 313 312 309 307 308 308 310 312 314 314 312 312 312 312 311 309 308 307 305 304 301 303 301 302 303 306 308 306
310 314 312 310 312 311 310 308 306 306 308 309 312 311 308 306 305 307 307 305 308 303 298 297 297 297 296 297 298 302 300 299
304 308 308 307 309 309 307 306 303 303 306 308 308 310 310 307 305 305 303 302 302 299 298 297 296 296 296 297 296 296 296 300
300 304 304 303 302 301 300 301 301 302 303 307 309 308 308 304 304 304 301 300 299 298 297 297 297 296 298 298 295 296 296 296
299 299 299 300 299 299 298 298 299 300 301 305 308 308 307 303 302 303 301 300 299 299 297 296 296 295 294 294 294 295 295 296
300 300 300 299 298 298 298 297 298 299 300 301 306 308 307 304 301 302 302 300 298 298 297 295 295 295 293 291 289 292 293 296
300 300 300 300 300 298 298 297 297 297 298 298 301 306 308 305 302 301 301 301 300 298 297 296 294 295 295 293 288 287 290 293
299 300 300 301 300 299 297 298 298 301 301 300 301 302 304 306 305 301 300 298 296 296 297 295 294 292 292 297 294 292 286 284
300 301 302 303 302 301 300 298 300 301 301 297 298 298 301 303 304 301 299 299 298 296 294 292 292 292 291 290 289 290 290 288
300 302 302 303 303 302 300 298 299 298 299 298 299 296 297 299 299 298 296 295 295 293 294 293 292 292 293 293 291 289 287 285
300 300 300 300 300 300 300 299 298 298 298 298 296 293 292 293 294 293 293 294 294 296 295 296 296 295 293 294 293 292 291 289
299 300 300 300 300 298 297 296 296 298 297 295 294 292 291 292 293 296 297 297 297 298 297 295 295 294 293 292 290 290 290 290

GFSFLT2_sfc_thetae_012.txt.gz
Theta_e
328 329 333 335 334 335 335 336 337 337 336 336 336 336 336 335 336 336 335 335 335 334 333 334 334 333 331 329 329 331 327 328
326 326 328 326 325 332 333 334 335 335 335 333 332 332 332 332 330 332 332 331 330 329 329 328 327 326 326 326 326 326 323 323
326 326 325 322 321 326 332 334 334 334 333 332 326 323 321 321 329 330 329 328 327 327 326 325 323 322 322 322 321 319 320 321
326 326 325 323 325 323 324 327 326 327 328 325 323 320 319 322 324 327 325 325 325 324 323 321 316 313 313 317 314 315 316 317
328 326 325 324 324 322 322 323 323 323 324 324 322 321 319 317 316 316 314 319 313 315 313 313 313 312 312 313 314 314 314 315
325 325 324 321 322 323 322 323 322 322 322 321 319 317 315 315 315 314 313 312 312 312 312 312 312 313 313 312 312 313 313 315
319 319 319 316 319 320 321 321 322 321 320 319 318 315 314 314 313 312 312 312 312 311 309 308 308 308 309 310 311 312 313 313
316 316 317 314 313 313 315 315 317 316 316 317 317 316 314 313 313 312 311 311 310 308 305 304 302 304 305 304 305 306 309 308
313 315 315 313 312 310 308 309 309 309 311 311 312 315 314 313 312 312 312 310 308 306 304 303 300 301 299 300 301 302 306 303
312 315 313 312 311 311 309 307 306 305 307 308 310 313 312 309 309 309 310 308 307 305 299 298 297 297 297 297 298 299 299 299
309 309 310 309 308 309 308 307 305 304 304 306 308 309 310 306 305 305 306 304 304 304 298 297 295 295 296 296 296 296 297 299
305 305 307 305 302 301 301 300 301 302 301 303 307 308 308 307 305 304 303 300 299 298 297 297 296 296 297 297 296 296 296 296
300 301 301 300 299 299 298 299 299 300 300 302 304 307 308 307 305 304 303 301 300 299 297 296 295 295 294 294 294 295 295 295
299 299 298 298 298 297 297 296 297 298 299 300 301 303 306 307 305 303 302 302 298 298 296 295 295 295 293 291 290 292 293 295
298 298 298 298 299 298 298 297 298 297 298 298 300 301 303 305 306 304 302 302 301 299 298 295 295 294 295 293 288 287 289 292
298 300 300 301 300 299 298 296 296 299 299 299 300 300 300 303 305 304 302 300 300 296 297 296 294 292 293 296 293 292 285 284
299 300 301 301 300 300 299 299 300 300 299 298 299 299 298 299 301 301 299 297 297 298 293 293 294 292 292 291 290 290 290 287
299 300 300 301 300 300 298 296 296 296 297 297 297 297 295 295 297 296 293 293 292 293 295 295 294 294 293 292 291 289 289 288
300 299 300 300 302 298 295 295 294 294 295 296 296 294 290 290 292 293 293 293 294 295 295 296 295 294 294 293 294 292 292 290
299 300 300 300 298 295 294 295 294 294 294 293 292 290 290 292 293 294 294 294 295 297 296 295 294 292 290 291 292 292 292 292

GFSFLT2_sfc_thetae_015.txt.gz
Theta_e
334 335 336 335 335 335 335 336 337 336 336 336 336 336 335 335 335 335 335 333 333 332 332 332 330 329 327 327 328 328 333 333
334 336 335 335 336 333 333 334 335 335 334 333 332 331 331 330 330 332 332 331 330 330 329 327 326 326 325 324 323 325 329 330
335 335 335 333 332 332 333 334 335 334 334 331 330 335 332 330 329 329 329 328 327 326 325 324 321 320 321 321 321 325 326 326
335 336 335 333 329 332 335 334 337 338 338 336 335 334 332 329 327 326 326 325 324 323 322 321 320 324 325 322 326 326 326 326
335 336 336 335 333 333 334 335 336 336 336 336 335 334 334 332 331 329 329 323 325 324 324 326 324 325 325 324 324 324 325 326
337 336 336 336 335 334 333 333 334 335 335 334 334 332 331 330 328 328 328 327 325 326 326 325 323 322 321 320 320 322 322 321
337 336 334 333 329 332 333 333 334 335 334 333 332 331 329 327 327 326 326 325 324 325 324 320 317 315 316 315 315 316 318 314
333 330 329 327 327 329 331 332 333 332 332 332 331 330 329 326 326 325 325 324 324 324 321 316 314 313 313 311 311 313 315 313
327 326 328 327 324 323 324 325 324 327 328 328 328 327 326 325 325 325 325 325 324 322 317 315 313 310 310 310 310 311 313 311
323 323 325 325 323 323 322 320 320 319 319 320 322 322 323 324 323 323 324 324 322 320 317 313 310 308 308 308 308 309 309 308
321 323 323 322 321 321 321 320 319 319 318 317 318 319 321 321 320 320 321 319 320 319 317 313 310 308 307 308 308 307 308 306
320 319 319 318 317 315 314 314 314 314 314 314 315 316 318 318 318 318 318 316 316 315 314 312 309 308 305 305 308 308 307 308
316 314 314 314 312 310 311 310 310 311 311 311 312 312 314 315 315 316 316 314 314 314 312 310 308 307 305 305 306 307 307 307
309 307 307 307 308 309 309 308 309 308 310 311 312 311 311 311 313 313 313 312 313 313 310 308 307 308 304 304 300 303 304 305
306 306 307 308 308 309 309 310 310 309 309 309 310 310 310 310 310 311 311 311 310 312 311 309 307 307 306 303 299 297 302 303
309 309 309 309 309 308 307 305 304 306 306 307 308 309 309 308 308 309 310 310 309 309 309 308 307 304 304 303 303 300 298 297
308 309 308 308 308 306 305 305 305 305 305 305 306 307 307 306 305 306 307 308 307 306 306 305 304 304 301 300 299 298 299 295
309 308 308 309 308 305 305 304 303 303 304 303 304 304 304 302 302 303 303 302 301 301 301 300 300 299 299 298 297 294 294 294
307 307 307 307 307 304 303 303 304 303 303 302 301 300 301 299 300 301 301 301 301 301 299 297 295 293 292 292 291 290 290 290
307 306 306 307 306 304 303 304 303 302 301 301 299 298 299 300 301 301 301 302 301 299 296 295 293 292 291 291 291 291 292 291

GFSFLT2_sfc_thetae_018.txt.gz
Theta_e
336 337 337 336 336 336 337 338 337 337 336 336 336 335 335 335 336 335 334 334 333 332 331 330 330 328 326 326 326 327 336 337
337 338 338 339 338 333 335 336 336 335 334 333 333 333 332 330 331 332 332 331 330 329 328 327 326 325 325 323 323 326 334 334
339 339 340 340 338 335 332 334 336 335 335 331 331 339 337 333 329 329 328 328 327 326 325 323 321 322 321 321 322 330 331 331
340 342 341 341 335 339 339 338 340 341 340 340 339 340 338 332 330 326 325 324 323 322 322 321 322 326 327 323 327 328 328 328
340 342 343 341 339 338 336 337 339 340 341 340 340 338 338 337 335 333 333 326 328 325 326 325 325 325 324 325 324 324 323 324
341 342 342 342 338 337 337 335 337 336 338 340 339 335 335 334 331 330 330 329 328 326 326 328 326 324 322 321 321 321 321 323
341 344 343 339 338 337 337 337 336 337 336 335 338 334 332 331 329 328 327 326 325 325 325 324 322 319 317 316 315 316 317 316
342 343 343 337 333 335 336 337 334 335 333 332 336 335 331 328 326 324 324 324 324 324 324 323 319 318 316 315 314 314 315 316
339 341 337 333 332 331 331 332 331 329 328 330 332 332 329 328 324 323 323 324 326 326 324 323 320 317 315 314 314 314 314 315
336 335 332 332 329 330 329 328 327 326 326 326 327 327 327 326 323 323 324 324 323 322 321 319 319 317 314 313 313 313 313 313
331 334 330 329 328 327 328 327 326 325 326 323 323 324 324 324 322 322 324 322 321 321 320 320 317 315 314 313 313 312 312 311
330 330 326 326 327 326 323 321 321 321 320 320 320 319 320 320 320 321 322 321 320 319 319 319 318 316 312 310 312 313 313 312
323 323 320 322 322 317 317 317 317 317 318 318 319 319 318 319 318 318 319 318 319 320 318 317 317 317 313 311 311 313 313 312
316 314 314 314 317 317 316 316 317 317 318 317 317 316 316 314 315 315 315 315 316 317 317 316 316 316 312 309 305 308 311 311
314 314 315 316 316 317 317 317 317 314 312 312 313 313 313 313 313 313 314 314 312 314 315 314 312 315 316 309 305 302 307 310
315 315 315 315 315 314 313 311 309 310 311 311 311 312 311 311 311 312 312 312 311 312 312 313 312 310 312 312 312 309 303 301
316 315 314 314 314 312 312 310 311 311 311 310 311 310 309 309 309 310 310 311 311 310 309 309 309 306 306 305 303 304 307 301
315 313 312 313 313 312 311 310 308 307 308 307 306 306 307 308 307 308 309 308 308 307 303 300 300 299 298 296 295 294 294 293
313 312 311 312 312 310 308 309 309 308 307 305 304 304 304 306 306 307 308 306 303 302 300 298 296 294 293 292 291 290 290 289
312 312 310 309 309 309 309 309 309 307 306 305 304 304 304 305 306 307 306 304 303 300 298 296 295 295 295 295 294 293 293 293

GFSFLT2_sfc_thetae_021.txt.gz
Theta_e
333 335 336 337 337 337 338 338 337 336 336 336 336 336 335 336 335 335 334 333 333 332 331 330 329 327 326 326 326 329 332 331
335 336 336 338 337 335 336 337 336 335 334 333 333 334 333 332 334 332 332 331 330 329 328 327 327 326 325 325 325 327 331 330
336 335 335 335 333 334 333 336 336 335 335 333 332 337 336 334 330 330 328 328 327 326 325 325 325 325 325 324 325 327 328 327
337 339 337 334 330 334 335 333 336 336 337 337 335 336 336 332 331 329 328 327 327 326 325 325 324 325 324 325 326 325 324 324
335 342 340 337 334 331 333 333 334 335 337 337 336 335 336 333 333 332 333 328 329 326 326 326 326 325 323 323 322 323 321 321
335 343 342 338 334 332 331 331 333 333 335 335 334 332 332 332 328 328 327 325 326 326 325 326 327 325 323 321 320 319 317 319
334 341 345 338 336 333 333 333 333 334 334 332 332 330 330 328 327 326 325 324 324 324 323 323 323 323 321 318 317 317 317 316
334 338 344 339 331 333 332 334 333 332 331 329 330 330 331 328 326 324 324 323 323 323 323 322 322 321 319 319 317 315 315 317
333 338 342 338 331 330 329 329 327 328 328 329 328 328 327 327 324 324 323 325 329 325 323 323 321 321 319 318 316 317 315 315
331 336 339 336 330 329 328 328 326 325 326 326 326 326 326 326 323 323 325 325 323 322 321 320 320 319 319 317 316 315 315 315
329 336 336 333 330 327 328 327 325 325 326 324 323 324 324 323 322 322 326 323 324 323 321 322 319 319 317 319 318 315 316 313
329 333 333 329 328 327 323 322 321 322 321 321 322 322 322 321 321 321 322 320 321 321 322 321 321 320 316 316 319 317 316 316
329 328 325 324 322 319 318 318 319 319 320 321 321 320 319 319 317 318 319 316 319 321 320 319 318 321 318 317 318 319 318 316
320 319 318 318 319 318 319 318 318 319 320 319 318 317 316 315 316 314 316 314 317 318 318 315 316 319 315 314 310 312 316 317
318 318 318 318 318 318 318 318 318 316 316 316 316 316 315 314 314 313 314 314 313 315 315 314 311 314 317 312 307 305 310 314
318 317 317 317 318 315 315 313 312 314 315 316 315 315 314 312 311 311 311 312 313 313 311 312 311 308 311 311 311 311 303 303
318 317 316 316 316 315 314 313 314 314 313 312 312 311 310 309 309 310 310 310 310 310 310 308 308 306 304 302 303 305 306 298
317 316 315 316 316 316 314 312 311 309 309 308 307 308 308 308 307 308 309 309 308 307 304 302 300 300 298 296 293 292 291 290
316 315 314 315 314 313 312 311 310 309 308 307 306 305 305 305 307 307 307 307 304 303 302 301 299 296 296 295 295 293 292 291
315 315 314 314 314 313 313 313 310 309 308 306 304 303 304 306 306 306 304 304 303 302 301 300 300 299 296 297 296 296 296 294

GFSFLT2_sfc_thetae_024.txt.gz
Theta_e
331 333 336 338 337 337 337 337 337 337 337 337 337 337 337 337 336 335 334 333 333 332 331 330 329 328 328 328 328 329 326 327
332 333 334 334 334 335 336 336 336 335 335 335 335 334 335 336 334 333 331 330 329 328 328 328 329 329 329 328 327 327 323 325
334 332 334 336 334 334 335 336 335 335 334 333 331 334 333 334 331 332 330 329 329 328 327 327 327 327 328 328 327 321 321 320
335 335 334 332 328 332 336 335 335 336 336 335 335 333 333 331 332 331 331 330 330 329 328 327 326 320 322 326 322 321 318 318
335 340 337 337 334 330 333 332 334 337 338 333 335 332 335 332 331 328 328 329 327 326 324 322 324 322 321 320 319 317 316 317
337 340 340 336 334 332 331 331 332 332 332 333 331 330 330 327 326 324 323 322 322 321 321 323 321 323 322 319 317 315 313 313
333 340 342 339 334 334 332 331 333 331 331 331 330 328 327 327 325 324 322 321 319 320 318 319 319 320 319 317 315 314 314 312
334 338 343 339 333 331 331 332 332 332 329 328 328 327 327 325 323 323 321 321 320 319 318 319 318 318 317 317 314 313 312 312
334 334 341 339 332 330 328 328 325 325 327 326 325 325 324 323 322 321 321 322 321 320 319 318 318 318 316 316 316 314 312 312
329 333 340 338 333 329 326 326 325 324 324 324 324 324 324 322 321 321 322 322 320 319 318 316 315 315 314 315 313 313 312 311
328 334 336 336 332 328 326 326 323 323 325 322 324 322 323 320 319 320 321 319 318 318 316 316 314 314 314 313 314 313 312 312
329 332 332 330 328 325 323 322 321 322 321 320 321 319 320 319 317 317 318 315 314 314 314 314 314 314 315 314 313 314 314 311
326 324 324 322 321 318 317 317 318 318 319 321 319 319 316 315 314 313 313 312 312 312 311 309 310 311 311 310 311 313 314 314
319 319 319 318 317 317 317 317 318 318 319 316 318 316 315 313 312 310 310 309 309 309 308 308 308 309 307 306 302 306 309 311
317 317 318 318 318 317 316 316 316 314 314 314 316 315 314 314 313 311 309 308 306 306 306 305 304 306 307 304 299 298 302 306
318 318 317 317 317 315 315 313 311 312 313 312 312 314 312 309 308 308 307 307 305 306 307 305 303 300 302 302 299 299 297 297
318 317 316 317 316 316 314 311 311 311 310 310 308 309 308 307 306 305 306 306 306 304 302 300 299 297 296 295 295 295 295 293
318 316 315 317 315 314 312 310 309 308 308 306 306 305 305 305 305 304 305 305 305 303 302 299 299 297 296 294 292 291 290 288
316 315 314 315 315 314 313 311 311 308 306 304 302 301 301 301 303 303 303 304 302 301 299 299 298 293 293 292 293 292 291 290
315 314 312 312 313 311 311 310 308 306 305 302 301 300 300 302 303 303 303 303 301 300 299 299 297 296 294 295 294 295 293 292

GFSFLT2_sfc_thetae_027.txt.gz
Theta_e
329 333 336 336 335 335 335 336 336 336 336 336 336 336 337 337 336 334 333 332 331 330 330 330 330 330 330 329 327 328 324 321
326 329 330 330 331 334 333 333 333 333 334 334 333 333 335 335 334 334 332 331 330 328 329 329 329 329 329 328 327 328 318 319
327 326 328 328 328 333 334 334 333 333 333 332 330 329 330 332 331 332 332 331 330 329 329 328 327 326 326 327 327 321 318 318
326 325 327 328 330 330 329 332 331 331 331 329 328 327 328 330 329 330 331 330 330 330 329 327 327 320 317 325 321 319 316 314
327 325 325 326 324 326 328 329 329 329 329 326 325 326 326 326 324 324 323 328 324 325 324 322 321 319 317 317 317 314 312 311
329 328 326 325 324 322 323 324 324 328 327 325 322 323 319 320 318 318 318 320 320 319 318 318 318 318 319 317 315 312 311 310
330 330 327 327 324 322 322 323 324 323 324 324 322 321 319 319 318 317 316 316 314 314 314 315 315 316 315 315 314 312 311 310
333 332 331 329 325 322 322 322 322 322 322 321 322 321 319 319 316 317 316 315 315 315 314 313 314 315 315 315 314 311 310 309
334 329 332 330 323 321 319 323 318 319 318 320 321 319 317 316 315 316 316 317 316 315 315 314 313 314 313 314 314 313 311 309
332 335 329 331 323 319 318 317 316 315 317 318 318 319 318 316 314 314 316 316 315 314 313 312 312 311 310 311 312 312 311 310
324 327 329 326 322 320 317 317 315 314 316 315 316 316 317 314 312 313 313 313 312 312 311 310 310 310 311 311 309 309 310 312
320 320 320 321 319 317 315 314 313 313 313 314 313 314 313 310 310 310 309 308 308 308 306 307 307 308 311 311 309 310 310 309
313 313 312 312 310 309 308 308 309 310 312 312 311 312 311 310 309 307 307 306 305 305 304 304 305 305 304 305 305 307 307 309
311 311 311 311 309 309 309 309 310 310 312 311 312 311 310 310 307 307 306 305 304 303 302 301 302 303 300 301 298 301 302 305
310 310 310 310 309 309 309 309 308 307 308 307 309 308 307 305 304 304 303 304 302 301 301 300 298 300 299 297 294 294 296 301
309 310 309 310 309 308 307 305 303 305 305 305 305 305 304 304 303 302 301 302 301 302 300 297 296 294 296 298 296 297 290 290
308 309 309 310 310 309 307 304 305 305 304 303 302 303 302 302 302 301 300 300 301 298 297 299 299 297 295 292 291 291 291 288
308 308 309 309 308 308 306 304 305 303 301 300 299 299 299 300 300 299 300 300 299 301 300 299 298 297 293 291 290 290 288 287
308 308 308 308 308 306 305 304 304 303 302 300 298 297 297 296 299 299 300 300 300 299 299 296 296 293 290 290 290 290 291 289
306 307 307 307 306 305 303 302 302 300 299 297 296 295 296 297 298 297 296 296 296 297 296 297 295 293 292 293 295 291 294 291

GFSFLT2_sfc_thetae_030.txt.gz
Theta_e
330 333 335 336 335 335 335 336 337 337 337 337 337 336 336 337 335 334 333 332 330 329 329 329 329 329 329 328 327 328 321 317
326 328 329 328 329 333 333 333 333 334 334 334 333 334 334 335 334 334 333 331 330 329 329 328 328 327 327 326 326 327 318 316
325 326 326 327 328 331 333 333 333 332 332 332 329 329 330 332 330 331 332 331 330 330 329 328 326 326 326 325 327 319 317 315
324 324 325 326 330 329 328 330 329 328 328 328 327 326 326 330 329 330 331 330 330 330 329 329 326 319 317 321 318 318 315 311
324 326 326 324 325 325 325 327 327 327 328 327 325 326 326 325 322 324 322 326 322 323 322 321 320 318 317 316 316 315 311 310
324 323 325 323 322 324 325 325 327 327 327 324 321 321 317 318 321 319 318 317 319 318 318 317 316 317 316 316 316 313 310 310
324 324 323 322 321 320 321 322 325 326 323 322 321 318 316 316 316 315 314 314 313 312 312 312 312 313 314 313 313 313 311 310
326 325 325 326 322 321 321 323 321 322 321 320 321 319 317 317 314 315 314 314 314 313 312 312 313 313 314 314 314 312 311 309
328 330 330 328 327 323 319 321 320 320 319 319 320 318 316 314 313 313 313 314 313 312 311 312 311 313 311 312 312 312 312 310
330 329 327 324 326 324 320 316 314 315 316 316 317 317 315 313 311 311 312 311 310 309 309 308 307 307 307 309 309 310 310 310
325 325 323 321 324 321 317 315 313 313 313 314 314 316 315 311 309 308 308 307 306 307 305 305 304 304 306 306 306 307 308 311
320 321 321 323 318 315 312 311 310 311 311 310 311 310 310 308 308 307 306 305 305 303 302 302 302 302 305 305 304 306 307 307
313 313 311 310 309 309 308 307 308 309 309 310 309 309 309 306 305 304 304 303 302 302 301 300 300 301 300 301 301 303 303 302
309 309 308 308 308 307 307 306 308 307 307 307 306 305 305 303 301 301 301 302 301 300 299 299 299 298 296 296 295 298 298 299
308 308 308 307 308 307 307 306 305 304 304 303 303 303 302 302 301 300 299 300 299 299 298 297 295 295 297 296 291 289 291 295
307 307 308 308 308 307 305 303 302 302 302 301 301 301 301 301 300 299 298 299 299 298 298 295 297 295 297 298 297 295 289 286
306 308 308 308 308 306 305 303 303 302 301 299 299 299 300 299 300 299 299 299 298 297 296 296 295 293 293 294 289 289 288 288
305 306 306 307 306 305 303 302 301 299 298 296 297 297 297 297 299 298 298 297 297 296 295 294 293 292 292 290 289 287 286 288
306 306 305 306 305 303 302 301 299 299 298 295 295 294 294 295 297 296 297 296 295 295 294 293 292 292 292 291 290 289 291 290
304 304 304 304 303 301 300 301 299 297 296 295 294 293 294 294 296 295 295 295 294 293 293 293 293 291 290 290 291 294 293 293

GFSFLT2_sfc_thetae_036.txt.gz
Theta_e
329 332 336 338 338 338 337 338 338 338 338 338 337 336 336 335 334 332 331 330 330 330 329 329 330 329 328 327 326 327 315 315
324 326 328 328 330 334 334 335 335 335 335 334 333 333 333 333 332 332 331 331 331 332 330 330 329 328 327 326 326 322 315 314
322 323 324 324 325 330 333 334 333 333 333 332 329 326 326 327 330 330 332 331 331 331 331 330 328 325 325 325 323 316 315 314
322 321 322 323 327 327 325 328 327 327 327 326 325 323 323 327 328 330 331 330 329 328 327 326 322 317 316 319 315 315 315 314
322 322 321 321 324 324 323 324 324 324 324 324 324 324 323 323 321 320 319 322 316 318 316 316 314 313 313 313 313 313 313 313
321 321 320 320 321 322 322 323 324 323 324 325 322 321 319 319 319 317 313 312 312 311 311 311 311 312 312 311 311 311 312 312
320 321 320 320 320 320 320 322 323 324 324 324 321 319 316 314 313 312 311 312 311 310 309 309 308 308 308 308 308 309 310 310
321 321 322 321 318 319 319 320 321 323 323 320 319 316 314 313 311 310 310 309 308 307 307 305 304 305 305 305 306 307 307 308
320 322 322 322 319 318 318 319 319 319 318 317 316 315 312 310 308 307 306 306 305 305 304 303 302 303 302 303 305 304 305 306
324 324 323 322 318 318 316 313 312 313 313 312 310 310 308 306 304 303 304 304 304 303 302 302 301 300 300 301 301 303 304 305
322 322 323 320 315 313 314 311 308 309 308 306 305 306 305 303 302 302 302 302 303 302 301 300 299 300 300 301 300 300 302 301
322 323 321 316 315 313 309 308 305 305 303 303 304 305 305 304 301 301 301 300 299 299 298 299 298 298 300 301 299 300 297 296
320 320 320 315 312 308 305 304 302 302 301 302 303 302 301 299 298 298 298 298 297 298 298 297 297 296 295 295 296 298 294 294
310 307 307 307 306 304 304 302 301 301 300 300 300 300 299 299 297 297 297 297 298 297 296 295 296 294 292 291 288 290 292 294
304 305 305 306 306 304 303 303 301 300 299 298 298 299 298 298 298 298 298 298 297 296 294 293 292 293 293 291 286 284 288 291
304 305 305 305 305 303 301 300 299 299 298 297 296 297 297 299 298 298 297 297 295 295 296 293 292 290 291 294 292 290 285 284
302 304 305 305 305 303 302 300 299 298 297 296 296 296 297 298 298 297 296 296 295 294 293 292 292 290 290 289 288 288 287 287
302 304 303 304 303 303 302 300 297 296 295 295 295 294 294 296 296 295 295 294 294 293 292 292 291 290 290 289 288 289 288 288
303 302 302 302 301 301 300 299 298 297 296 294 293 293 292 292 293 294 294 294 293 292 291 291 290 288 288 288 288 287 288 289
301 302 301 300 300 299 299 298 296 296 295 294 293 292 292 293 293 293 293 293 292 292 291 290 290 288 287 287 287 288 288 289

GFSFLT2_sfc_thetae_039.txt.gz
Theta_e
342 343 343 341 339 339 339 339 339 339 338 338 337 336 335 335 334 333 331 332 332 331 331 331 330 329 328 327 327 325 325 324
337 338 340 341 341 336 335 336 335 336 336 335 333 333 333 333 331 333 333 332 332 332 332 331 330 327 327 326 325 324 326 325
332 333 334 335 335 335 335 335 334 333 333 332 330 334 334 333 330 331 332 332 331 331 330 328 326 324 324 324 323 325 324 324
329 331 330 331 330 335 335 334 334 334 333 334 334 334 335 334 332 329 329 327 325 326 325 324 324 324 323 323 322 323 322 323
328 329 329 329 330 332 331 332 333 333 333 333 333 334 335 335 335 333 330 322 324 323 323 322 322 321 319 318 318 318 319 319
327 328 328 328 329 330 331 331 331 332 333 333 335 333 334 333 331 325 324 323 323 322 321 320 318 317 316 314 315 313 313 313
327 328 327 327 327 329 330 330 331 333 333 334 333 332 328 325 323 322 321 321 319 318 317 316 315 314 313 312 312 312 312 312
327 328 329 328 326 326 326 328 329 331 332 329 328 326 325 322 320 317 316 316 316 316 314 314 312 312 311 312 311 311 311 313
326 329 328 325 323 322 321 319 323 326 325 325 323 322 321 318 316 315 314 315 315 314 313 313 311 310 309 309 309 310 311 311
328 327 324 324 322 322 317 316 318 318 320 319 317 316 315 314 312 312 312 312 311 310 309 308 308 307 308 308 309 309 311 307
326 326 324 323 318 314 314 314 314 313 312 311 312 311 312 311 310 310 310 309 308 308 307 307 305 306 306 306 307 307 309 305
325 324 321 316 313 313 314 311 310 310 310 309 311 310 310 309 308 308 308 307 307 307 307 307 307 306 303 304 303 306 307 304
322 322 321 317 313 312 309 310 308 308 309 309 309 308 308 309 307 307 307 305 306 306 305 304 303 304 302 300 301 306 304 303
325 320 319 317 315 314 314 311 310 309 308 308 308 307 307 306 307 306 306 304 304 304 304 301 302 303 298 297 294 296 302 301
322 320 317 317 315 313 311 311 309 307 307 307 306 306 306 306 306 307 306 305 302 303 303 301 298 301 301 297 291 290 294 298
313 313 313 313 313 313 312 312 310 309 308 306 306 305 305 306 306 306 306 305 303 302 303 302 301 297 298 299 299 297 288 287
312 312 312 312 313 313 312 309 308 307 306 305 306 306 304 305 305 305 305 304 304 303 302 302 302 298 297 296 296 295 295 290
312 311 310 311 312 311 311 309 307 306 306 306 305 304 303 304 304 304 304 304 303 302 302 301 300 299 298 296 294 291 290 289
310 311 309 309 310 310 310 309 308 307 306 305 303 303 303 303 303 303 302 303 302 302 301 300 299 298 297 296 296 294 294 292
309 309 307 307 308 307 308 307 308 306 304 303 303 302 302 303 302 302 301 301 301 300 300 299 299 298 296 296 295 295 295 293

GFSFLT2_sfc_thetae_042.txt.gz
Theta_e
345 345 344 341 340 340 340 341 340 339 339 338 337 336 335 335 334 332 332 332 331 331 331 331 330 328 328 326 326 326 327 325
339 339 340 341 342 338 338 337 336 336 336 335 333 333 333 332 333 333 332 332 331 331 330 329 327 326 325 325 325 328 325 325
336 335 337 337 337 338 335 336 335 334 334 333 331 334 334 333 331 332 332 330 329 329 327 326 327 326 325 324 326 324 324 324
332 333 333 334 330 335 335 333 334 336 335 336 336 338 337 334 332 329 328 325 326 325 325 326 326 326 325 324 322 323 322 322
329 332 334 332 332 332 332 334 336 338 339 339 339 339 340 339 338 336 335 326 330 329 329 327 325 324 322 321 320 320 319 318
329 331 333 333 331 332 334 335 337 338 339 340 341 338 341 339 336 334 333 331 330 328 327 325 323 320 319 319 319 318 318 317
329 330 331 332 333 334 335 338 338 339 340 339 338 338 337 335 334 332 329 328 326 324 323 321 320 319 319 318 317 317 317 316
332 332 332 333 333 334 332 332 333 337 337 335 331 332 331 332 331 328 326 323 322 321 319 318 317 317 317 317 316 316 316 316
332 333 333 332 331 330 328 327 329 328 331 331 330 331 331 329 325 322 319 318 318 317 316 317 315 315 314 314 314 314 313 314
332 332 331 330 327 323 322 322 324 326 327 327 325 324 322 319 318 316 316 316 315 315 314 313 312 311 311 310 310 311 310 312
330 332 330 328 326 321 321 318 319 319 318 317 316 315 316 315 315 316 316 314 313 311 309 309 307 307 306 305 307 307 307 307
331 331 322 319 321 320 317 315 313 313 313 314 314 314 315 316 315 315 313 310 308 308 307 307 307 307 304 304 306 306 307 308
330 328 325 323 326 320 315 312 314 315 316 315 315 315 315 315 312 310 309 307 307 307 306 305 304 306 303 302 303 305 308 307
329 330 331 329 325 322 320 318 318 317 316 315 314 314 312 310 310 308 308 306 307 306 306 303 303 304 301 300 295 298 301 305
329 328 327 324 322 320 319 318 316 314 314 313 313 312 311 309 309 308 308 307 305 306 305 304 300 302 303 299 294 292 296 300
323 323 322 321 321 319 318 317 315 316 318 315 314 311 309 308 308 308 308 307 306 306 304 304 303 299 300 300 300 298 290 290
321 320 319 319 319 318 319 317 316 316 315 312 313 312 309 307 307 308 308 307 307 306 305 304 303 300 299 296 296 295 295 292
319 318 317 318 319 318 317 315 313 312 312 309 309 308 308 307 307 307 307 307 306 305 305 303 302 301 299 297 294 291 291 290
318 317 316 317 317 316 315 313 310 308 307 306 306 305 305 306 307 306 305 305 305 305 303 302 301 299 299 297 296 294 294 293
316 316 315 315 314 313 311 308 310 308 307 307 306 305 306 306 306 305 304 303 303 303 302 302 301 300 298 297 295 294 294 292

GFSFLT2_sfc_thetae_045.txt.gz
Theta_e
344 345 344 342 341 341 341 341 340 340 340 338 337 336 336 335 334 332 332 331 331 331 331 330 328 327 327 327 327 329 327 325
338 340 340 341 342 339 339 338 337 337 337 335 333 333 333 334 334 333 332 332 331 331 329 327 325 326 326 326 327 329 325 324
335 334 336 337 338 339 337 337 336 335 333 333 330 332 332 332 332 333 330 329 329 328 326 325 326 326 325 324 325 323 323 323
333 334 334 334 330 335 334 332 333 334 334 335 335 336 336 333 333 331 328 327 327 327 326 327 327 326 325 327 322 322 322 321
329 332 334 331 331 332 331 332 335 337 337 337 338 336 336 334 335 333 333 328 329 328 328 327 327 325 323 323 322 322 321 320
328 331 333 333 330 330 332 333 335 335 338 338 338 337 337 336 333 331 330 330 330 328 326 326 325 324 322 322 322 321 320 319
327 330 332 334 334 335 336 336 336 339 340 340 339 339 336 334 332 330 329 327 326 325 324 323 322 322 321 321 320 319 319 318
329 330 333 335 336 336 335 335 336 338 338 336 334 335 334 332 332 329 327 324 323 322 320 318 319 319 318 318 317 317 317 317
332 333 334 335 332 330 330 330 330 330 331 333 332 333 332 331 326 323 320 320 319 317 318 318 315 315 314 314 314 313 312 313
333 333 334 332 329 327 326 325 324 325 328 328 326 325 324 323 319 318 318 317 317 315 313 310 309 309 310 309 308 308 309 310
332 334 333 328 325 323 321 320 319 320 321 321 319 319 319 317 317 317 318 315 313 311 309 308 307 306 306 307 307 306 308 307
333 331 329 327 327 326 324 321 318 318 316 316 317 317 318 318 317 316 313 311 310 309 308 307 306 305 304 305 307 306 306 307
330 328 327 330 330 324 322 319 318 318 318 318 318 318 317 317 314 312 311 309 309 309 307 306 305 305 302 302 303 307 307 306
329 329 330 331 329 326 324 320 319 319 318 318 318 317 315 313 312 311 310 308 308 308 307 304 304 305 300 299 296 299 301 304
329 330 329 327 324 322 321 320 319 317 316 316 316 315 313 312 311 310 309 308 306 307 306 304 301 303 304 299 294 292 296 299
330 326 323 322 322 320 319 316 313 316 319 317 316 314 312 310 310 310 309 308 307 306 305 305 304 300 301 301 301 299 292 291
323 322 321 322 321 321 319 318 319 318 317 315 314 314 311 309 309 309 308 307 307 307 307 305 303 300 299 298 298 297 297 293
322 321 319 321 321 321 319 317 315 314 313 312 310 310 308 308 308 308 308 306 305 304 305 304 302 301 300 298 297 294 293 292
320 319 318 320 320 320 318 316 313 310 309 308 306 306 306 307 308 307 305 305 303 304 303 303 302 300 300 298 298 296 295 294
319 319 317 319 318 316 315 312 311 310 308 307 307 306 306 307 306 304 302 302 301 303 302 302 302 301 299 298 297 297 296 295

GFSFLT2_sfc_thetae_048.txt.gz
Theta_e
341 343 343 341 340 340 340 340 339 339 339 337 336 336 335 335 335 335 334 334 332 332 331 330 329 327 327 327 327 329 322 320
340 341 341 340 339 338 337 336 336 336 335 334 332 332 333 334 334 334 333 332 331 330 330 330 328 327 325 324 326 327 317 318
337 336 338 338 338 337 336 336 336 334 333 333 329 328 329 331 332 333 332 330 330 329 329 328 329 328 327 323 326 318 317 317
333 334 334 335 333 334 332 332 331 331 331 330 330 334 332 330 331 332 331 330 330 329 328 328 327 322 320 325 318 319 318 317
330 332 333 331 328 332 329 330 334 336 335 335 335 334 332 330 331 330 328 328 327 324 325 325 323 321 319 319 318 317 316 316
329 332 334 332 329 329 330 332 335 334 336 336 335 334 333 332 332 330 328 325 325 324 323 322 321 320 320 319 318 317 315 315
327 331 332 331 334 335 334 334 334 334 335 335 334 334 332 332 329 329 326 324 321 319 318 317 316 316 316 317 316 314 314 313
327 329 333 336 333 333 330 330 333 334 334 333 333 333 330 330 327 322 319 318 317 315 313 314 314 314 312 312 312 312 310 310
328 331 334 332 328 326 325 326 327 328 329 329 327 326 325 323 321 317 316 316 315 314 312 309 308 308 306 306 307 305 304 305
330 332 331 327 325 324 324 323 322 325 325 324 322 323 322 319 316 315 315 314 313 310 308 305 304 304 303 303 305 303 303 305
330 332 328 327 325 324 322 323 321 321 320 319 317 318 318 316 315 314 313 311 309 307 306 304 302 301 301 300 302 302 303 304
332 329 327 325 325 326 324 322 318 317 316 315 316 316 317 316 315 312 310 308 306 305 304 304 303 301 302 301 301 302 301 301
330 326 326 325 327 323 320 318 316 316 316 316 317 316 316 313 312 309 308 307 305 305 303 301 301 301 298 298 298 299 300 299
329 328 327 327 329 324 323 318 317 316 317 317 317 316 313 312 309 308 308 305 305 304 303 301 300 300 296 296 292 294 297 298
327 328 327 329 326 323 321 319 317 315 315 314 315 314 312 310 309 308 306 305 303 303 302 301 297 298 299 295 291 288 292 295
329 329 329 326 322 319 317 314 312 314 314 314 313 313 311 309 308 306 305 305 303 302 302 301 299 296 297 299 296 294 289 288
329 328 323 321 321 320 318 317 314 316 315 314 313 313 312 308 307 306 304 304 303 302 301 299 298 296 295 294 293 293 292 289
323 320 319 320 320 320 319 318 314 313 311 311 310 310 308 307 307 305 304 303 302 300 299 299 298 297 296 295 293 291 290 290
321 319 317 319 320 319 318 316 313 310 308 307 305 305 304 305 305 303 302 301 299 299 298 297 297 296 295 295 296 294 294 291
319 318 317 318 319 318 316 314 311 309 306 306 305 304 304 305 302 301 300 299 298 298 296 296 296 296 295 295 294 293 294 292

GFSFLT2_sfc_thetae_051.txt.gz
Theta_e
339 340 341 340 339 339 338 338 338 337 336 335 335 334 334 335 335 335 334 334 334 332 330 329 327 327 327 328 326 328 315 317
337 337 339 338 337 336 335 335 334 334 333 332 332 332 333 333 333 334 334 333 332 331 330 329 328 327 327 327 326 323 313 315
336 336 336 336 335 335 334 335 333 332 331 331 328 327 328 330 330 332 332 331 330 330 329 328 327 326 327 328 323 316 315 314
332 335 334 334 334 331 330 332 328 328 327 327 325 324 325 329 330 331 331 331 329 329 329 327 325 318 317 321 315 315 314 313
332 333 332 329 330 328 327 326 326 326 326 326 326 329 326 328 326 328 325 328 323 325 322 320 318 317 317 315 315 315 312 312
326 328 328 325 329 326 324 326 329 328 330 332 330 329 328 328 326 326 327 323 317 316 314 313 313 313 313 313 313 312 311 311
323 325 324 323 328 330 330 330 330 330 331 331 330 329 326 325 322 319 317 314 312 311 310 311 311 311 309 308 308 309 306 306
323 324 326 330 327 325 325 328 329 329 328 328 327 326 323 319 317 315 312 312 311 310 308 306 304 305 304 305 304 303 301 301
323 325 326 323 322 323 322 324 325 326 324 322 321 322 318 316 313 312 311 311 309 306 303 303 302 303 301 302 303 301 301 302
324 329 322 320 319 319 319 319 321 321 318 317 317 317 315 312 311 310 310 308 305 304 302 301 300 299 298 297 300 300 301 300
325 323 321 320 319 318 318 317 316 316 314 313 313 313 313 311 309 307 307 305 304 303 301 300 298 298 299 297 297 298 299 301
324 324 321 319 319 319 318 316 313 311 310 310 311 312 313 311 308 305 305 303 302 301 300 300 299 298 301 298 296 297 297 297
324 322 321 321 319 317 315 312 310 309 309 311 311 312 310 307 306 305 303 302 301 301 299 298 297 297 294 294 294 296 295 295
323 322 321 321 323 319 315 312 309 310 310 311 311 309 308 307 304 303 302 301 300 299 298 297 296 297 293 292 289 292 293 296
323 323 322 322 325 319 315 311 310 308 308 309 309 309 308 306 305 303 301 301 299 298 297 296 294 295 295 292 288 285 289 292
325 324 322 323 324 317 312 307 307 307 308 308 308 308 307 305 304 302 301 301 299 298 300 297 295 292 294 296 292 291 286 287
322 323 323 323 317 314 310 308 308 309 310 310 308 307 306 305 303 301 300 300 299 297 295 295 295 293 292 291 291 290 290 286
321 322 321 314 313 312 311 309 310 310 309 309 307 307 304 303 302 300 299 298 296 295 294 294 293 293 293 292 291 289 290 289
322 319 312 312 313 312 311 308 307 306 304 302 300 301 301 301 299 298 296 295 295 294 293 293 292 292 292 292 293 292 292 293
316 312 312 313 313 311 309 307 304 302 302 303 302 302 302 297 296 295 295 295 295 294 293 292 292 292 291 291 292 293 292 292

GFSFLT2_sfc_thetae_054.txt.gz
Theta_e
336 336 338 338 339 338 337 338 337 336 336 335 335 334 334 335 335 335 334 334 333 331 330 328 328 329 329 327 325 323 314 316
335 337 337 336 335 335 335 335 334 333 333 332 332 332 333 333 333 334 334 332 331 330 329 327 327 327 328 326 324 321 312 313
334 333 334 335 333 334 334 334 332 331 331 331 328 326 327 329 329 332 332 330 329 329 328 326 325 326 327 325 321 313 312 312
333 332 333 333 332 330 329 329 327 326 325 324 323 324 324 328 328 330 330 329 329 328 327 325 320 315 315 318 313 313 312 311
331 332 332 330 328 326 326 324 324 323 324 323 324 325 325 324 324 325 323 325 321 319 315 314 312 311 311 309 310 310 309 309
331 332 329 326 325 324 324 324 325 324 324 326 325 326 324 324 324 322 319 315 312 311 310 310 308 308 306 305 305 303 303 303
329 330 324 325 325 324 325 327 328 328 328 329 328 325 322 318 316 315 313 311 310 307 306 304 304 303 303 302 303 301 300 300
325 326 324 327 325 326 326 328 327 326 325 325 326 322 316 315 313 311 310 309 307 304 302 301 300 301 301 300 301 300 299 299
322 325 326 324 324 324 323 324 324 322 320 320 319 319 316 313 311 310 309 307 304 302 301 300 300 300 299 298 300 299 300 299
326 326 323 320 319 320 321 321 320 319 317 316 317 315 312 310 309 308 306 303 302 301 300 299 298 297 296 296 296 297 298 298
322 321 319 319 317 317 316 317 315 314 312 311 312 312 311 308 305 304 304 302 301 301 299 298 296 297 297 296 296 295 296 298
321 320 318 317 316 316 314 313 312 311 309 309 310 310 311 308 304 303 302 301 300 299 297 298 297 296 299 297 295 294 294 294
321 319 317 317 316 316 314 310 309 308 308 310 310 310 310 305 303 302 301 300 299 299 297 297 296 296 293 293 293 294 293 293
320 319 318 318 319 316 314 311 308 307 308 309 310 308 306 304 302 301 300 299 298 297 297 296 295 295 292 290 288 290 292 295
320 320 319 319 320 318 312 309 307 306 306 306 306 307 307 304 302 301 300 299 297 297 296 294 293 293 293 291 287 284 287 290
321 321 320 320 322 318 310 307 306 306 306 307 306 307 306 304 303 301 300 299 297 297 297 294 293 290 292 295 291 290 286 284
322 322 322 321 322 317 311 306 307 306 307 306 306 305 304 303 301 300 299 298 296 294 293 293 292 291 290 290 289 289 288 285
322 322 321 320 320 314 311 308 307 306 306 305 305 305 302 302 300 298 297 295 294 293 292 291 290 290 290 290 290 288 287 287
322 320 319 315 313 312 310 308 307 307 306 304 302 300 301 300 298 298 296 295 295 293 291 291 290 289 289 290 291 291 292 290
321 320 314 310 310 309 307 306 304 303 304 303 302 301 299 298 296 297 296 296 294 292 291 290 291 290 289 289 290 291 291 290

GFSFLT2_sfc_thetae_057.txt.gz
Theta_e
335 335 336 336 336 338 337 338 337 337 336 336 335 335 334 335 335 335 334 333 333 332 331 331 331 330 328 325 324 323 314 316
332 332 334 335 335 335 335 335 335 335 335 334 332 332 333 334 333 334 334 333 332 331 330 329 330 328 327 324 322 320 311 313
329 332 333 331 332 334 334 334 333 332 332 331 327 325 326 326 330 331 332 331 331 330 329 325 323 323 323 322 319 311 311 311
327 330 331 331 332 330 328 329 326 325 325 324 322 322 324 326 329 330 330 330 329 326 323 320 315 310 309 312 309 308 307 309
330 330 331 329 328 327 326 324 323 323 322 322 322 323 324 323 323 322 319 321 314 313 310 308 307 306 305 304 303 302 301 303
329 330 330 327 325 324 323 322 321 322 322 323 323 322 322 322 320 318 313 311 309 307 306 305 303 303 302 302 300 299 298 299
327 329 326 324 322 320 321 323 323 326 327 327 326 323 320 317 313 311 310 308 305 303 304 302 301 300 300 300 299 298 298 298
329 328 322 323 322 322 324 325 326 326 325 325 324 318 315 313 310 309 307 305 303 302 301 299 298 299 298 299 298 298 297 297
326 323 324 324 324 324 323 324 323 321 321 321 318 316 313 311 309 307 305 303 302 301 299 299 298 299 297 297 297 296 297 297
324 326 324 322 322 321 322 321 320 318 318 317 316 314 312 309 308 306 304 302 301 299 298 297 296 296 295 295 295 295 296 296
322 322 320 319 317 317 317 317 316 314 313 313 312 311 310 306 305 303 302 300 300 300 298 297 295 295 296 295 294 294 295 296
321 319 317 316 316 315 313 312 311 310 309 310 310 309 308 304 303 302 301 300 299 298 296 296 296 295 298 296 292 293 293 293
318 317 315 316 314 312 310 309 308 307 308 309 310 309 307 303 301 300 300 299 298 297 296 295 294 294 292 292 292 292 292 292
318 318 316 316 315 314 313 309 308 307 307 308 309 308 305 303 301 299 300 299 297 296 296 294 293 293 291 289 286 289 291 293
319 318 317 316 317 314 309 307 306 305 305 305 306 306 305 303 301 300 298 298 296 295 294 294 292 292 292 290 285 283 286 289
320 319 317 317 318 314 309 307 304 305 305 305 305 305 304 303 301 300 298 298 296 295 296 294 292 290 291 294 290 289 285 284
319 319 318 319 319 317 311 306 305 305 305 305 304 303 303 302 300 299 298 297 294 293 292 291 292 291 289 289 288 287 286 285
318 319 319 319 319 316 311 307 305 305 304 303 303 302 300 300 299 298 297 294 293 292 291 291 289 289 289 288 288 287 287 285
319 319 319 319 319 316 312 308 307 306 305 305 301 298 299 298 299 298 297 295 294 294 292 290 289 288 288 289 290 290 290 288
320 320 319 318 316 314 310 308 307 305 304 303 301 300 298 298 299 297 297 297 295 293 291 290 290 288 288 288 288 289 289 290

GFSFLT2_sfc_thetae_060.txt.gz
Theta_e
335 336 337 335 337 338 337 337 337 337 337 337 336 336 335 335 335 334 334 333 333 333 332 331 330 328 327 326 324 323 314 316
332 333 333 333 334 335 335 335 335 335 335 334 332 333 333 333 333 334 333 333 332 330 330 329 328 327 324 322 321 318 311 312
329 330 331 331 331 335 334 335 334 333 332 331 327 326 326 325 331 332 332 332 330 327 324 321 319 320 321 319 314 308 310 311
323 327 329 330 332 330 328 330 326 326 325 323 322 322 321 326 328 330 331 327 325 322 318 316 310 305 305 307 303 302 304 311
325 327 329 330 328 327 325 323 323 323 322 321 321 324 322 322 321 320 317 316 309 308 306 304 303 303 302 301 300 300 299 301
324 327 329 328 326 325 323 321 321 321 320 322 322 321 320 320 318 312 310 308 305 304 303 302 302 302 301 300 299 298 298 299
324 328 327 325 324 322 321 321 321 321 321 323 324 321 320 315 311 309 306 304 303 302 303 302 301 299 299 298 298 298 298 298
325 326 325 323 320 319 320 322 324 324 325 325 324 320 315 312 309 306 303 302 302 303 302 300 297 298 297 298 297 297 297 297
325 325 322 322 320 320 322 324 324 323 323 322 319 316 314 310 308 303 302 301 301 302 299 298 297 298 296 296 296 297 296 296
326 327 323 322 321 321 321 321 321 320 319 318 316 314 312 308 306 303 302 301 301 299 298 297 296 296 295 295 294 296 295 295
321 322 320 320 318 318 319 318 317 316 316 316 312 310 310 308 305 302 301 300 299 299 297 297 295 295 296 295 293 294 294 296
321 319 317 315 315 314 313 313 313 313 313 311 310 308 307 306 303 301 300 299 298 297 296 296 295 295 297 295 293 293 293 293
318 316 315 316 315 312 310 309 309 309 309 309 309 308 305 303 301 300 299 298 297 296 296 295 294 294 292 291 292 292 293 292
317 317 315 317 317 312 312 309 308 307 307 308 308 306 303 302 300 299 299 297 297 296 296 294 293 293 290 289 286 289 291 293
318 318 316 317 316 313 308 307 307 305 305 305 306 307 304 302 300 299 298 297 296 295 294 293 291 292 292 289 284 283 286 290
318 318 316 315 316 312 309 308 305 305 305 305 305 305 303 301 300 299 297 297 295 295 295 293 291 289 290 294 290 289 286 284
317 317 316 316 316 314 311 308 308 307 305 305 304 302 302 301 299 298 297 296 295 295 294 293 292 290 289 288 288 288 287 286
316 316 316 317 317 315 313 312 308 307 304 304 302 300 299 298 298 297 295 295 296 294 292 292 290 290 290 289 289 287 287 285
317 317 316 317 317 316 314 313 309 306 304 304 300 297 296 296 296 296 297 297 296 295 293 292 291 290 288 288 290 290 290 288
318 318 319 318 318 317 316 313 308 305 305 305 300 298 297 297 299 298 298 297 296 294 294 292 291 289 288 288 288 289 289 289

GFSFLT2_sfc_thetae_063.txt.gz
Theta_e
336 337 337 337 338 337 336 337 337 337 338 338 337 336 336 335 335 334 335 334 333 332 332 330 330 329 327 326 324 323 324 325
333 332 329 331 335 335 335 335 335 335 335 334 333 333 334 334 333 334 334 334 334 331 330 329 326 325 323 322 321 321 321 323
331 327 330 329 331 334 334 335 334 333 333 332 329 330 329 329 331 333 332 330 328 324 322 321 321 320 316 314 317 319 320 321
327 327 326 327 332 332 334 333 332 332 330 330 328 329 330 328 330 330 328 326 324 320 317 315 314 311 311 312 310 312 315 319
320 322 328 327 328 330 329 329 329 329 329 327 328 328 330 329 329 325 321 318 313 311 311 312 311 311 310 310 310 309 310 310
320 321 321 331 330 329 327 326 326 326 326 328 329 328 329 328 326 320 316 313 313 311 311 311 310 310 309 309 309 308 308 309
319 323 329 331 330 329 326 326 326 328 328 329 331 329 329 325 319 315 312 312 311 310 309 308 309 308 307 307 306 307 308 309
323 327 331 330 329 328 326 326 327 327 329 329 331 329 325 318 315 312 311 311 311 310 308 307 307 307 306 306 306 306 308 312
323 329 332 330 328 327 326 326 327 327 328 330 330 327 322 318 315 312 310 311 310 306 308 308 307 306 306 305 305 305 305 307
327 328 330 329 327 326 326 327 330 331 332 329 327 324 321 317 313 311 311 311 309 308 308 307 306 306 306 304 304 304 305 305
327 330 330 330 328 327 328 330 330 329 328 327 323 321 319 315 312 311 311 310 310 308 307 307 306 306 305 305 305 304 304 303
329 330 329 328 327 326 327 328 327 327 327 325 321 319 317 315 312 311 311 309 308 308 307 307 306 306 303 303 305 303 304 305
327 327 327 325 323 321 321 323 323 322 323 321 319 317 316 312 311 310 310 309 308 308 307 306 305 306 303 302 303 302 302 303
325 326 324 325 325 324 324 323 321 321 320 319 318 316 313 311 311 309 309 307 307 307 307 305 305 305 300 299 296 298 301 302
324 325 325 325 326 323 319 318 317 316 316 315 314 312 310 311 310 309 309 308 307 307 307 304 302 302 301 298 293 292 294 300
325 325 324 324 324 323 320 321 317 317 316 313 311 311 310 310 309 309 308 307 307 306 305 304 302 298 300 300 300 297 292 291
325 325 324 324 323 323 322 320 319 316 314 312 311 311 311 309 309 308 307 307 306 305 303 300 299 298 298 298 297 298 297 293
324 323 323 323 322 322 321 319 315 313 313 311 311 311 310 308 307 307 307 305 303 300 302 298 298 297 298 298 296 294 294 294
323 322 322 321 320 320 319 319 316 314 314 311 310 309 307 306 306 305 304 304 302 300 300 299 295 296 298 298 298 298 298 297
321 321 322 321 319 320 319 318 317 316 311 312 311 308 306 306 305 304 304 303 299 298 299 297 298 299 299 299 298 298 297 296

GFSFLT2_sfc_thetae_066.txt.gz
Theta_e
339 339 340 338 337 337 336 337 337 338 338 337 336 335 335 336 336 335 335 335 334 334 333 332 330 328 326 325 324 325 326 325
331 330 330 326 327 332 335 335 336 336 335 334 333 333 334 334 334 335 335 334 332 330 329 329 326 325 323 321 322 323 323 323
326 327 326 327 329 333 335 335 335 333 332 331 328 327 327 328 332 333 333 331 329 327 325 323 321 318 316 317 318 322 322 321
326 326 326 326 326 326 332 332 331 330 328 329 328 330 330 329 330 330 328 326 323 320 319 320 321 319 316 317 316 316 317 319
325 325 326 324 324 328 329 328 331 330 330 328 331 331 330 331 328 326 324 323 318 318 319 320 320 318 316 315 314 314 313 313
323 324 324 324 325 329 331 328 329 328 328 331 330 329 330 331 329 327 325 323 321 321 319 318 316 315 314 313 313 311 311 311
320 323 322 324 325 328 327 328 327 327 329 330 329 329 330 330 329 326 323 322 320 318 317 315 314 313 312 311 310 311 311 312
318 320 321 323 330 330 327 327 329 328 329 331 333 331 331 329 326 323 320 320 319 317 316 315 313 311 311 310 309 310 311 313
319 323 329 330 332 330 327 327 327 326 327 333 335 334 331 329 323 319 320 320 319 315 314 313 311 310 309 309 310 309 310 311
324 326 332 334 333 330 327 327 327 327 330 333 336 334 331 326 324 321 320 318 316 314 314 311 311 311 310 311 311 309 310 310
325 331 333 334 333 330 329 329 328 332 335 334 335 333 330 327 323 320 319 317 316 314 313 312 310 311 310 312 311 309 309 308
330 331 333 335 335 332 329 328 329 334 335 334 332 331 328 326 322 320 319 317 315 313 312 312 312 313 308 309 310 309 309 308
329 330 333 334 332 327 325 326 330 333 333 334 332 330 328 325 321 319 319 316 315 315 312 311 310 313 311 310 308 308 307 307
330 331 333 334 331 328 326 327 329 331 332 331 330 327 325 322 321 318 318 315 314 313 312 310 311 311 307 305 304 305 306 306
330 332 333 333 331 328 328 330 330 329 328 328 328 324 324 320 318 319 317 315 313 314 313 311 308 308 306 302 296 298 300 304
331 332 332 333 332 328 326 325 324 327 328 328 322 322 319 317 318 318 316 315 314 313 312 311 308 304 305 300 301 299 296 295
329 330 332 333 333 332 329 327 328 330 328 326 323 319 317 316 317 317 316 315 315 313 311 308 304 305 301 299 299 301 301 297
331 329 329 332 333 333 331 330 329 326 325 322 317 317 313 315 315 316 316 315 313 311 309 306 304 302 300 300 300 298 297 297
330 330 328 331 331 331 331 331 330 326 324 321 318 315 314 315 315 315 314 314 312 307 307 302 302 300 299 301 301 300 300 298
329 329 328 329 328 330 330 328 326 325 323 321 316 313 317 317 315 314 313 311 308 302 306 304 300 299 302 302 301 300 300 299

GFSFLT2_sfc_thetae_069.txt.gz
Theta_e
338 340 340 337 336 336 337 338 338 338 338 338 337 336 336 336 337 337 336 335 335 334 332 331 329 327 326 324 324 327 325 325
333 330 333 331 333 335 335 336 336 336 335 334 333 334 334 335 334 335 334 334 333 330 330 329 326 324 323 323 322 326 322 323
324 324 325 328 328 332 335 335 334 333 333 332 329 327 328 329 333 333 333 331 330 328 327 324 322 320 319 319 321 320 320 321
322 321 320 321 325 327 332 334 331 330 329 329 326 331 330 329 330 330 329 328 326 326 325 323 323 319 318 318 316 316 315 317
322 320 320 320 324 328 327 329 328 329 331 331 330 331 332 330 328 325 325 325 321 319 318 322 323 321 318 316 314 314 313 313
323 322 322 322 326 325 327 325 326 328 330 335 333 331 331 329 326 326 325 324 322 324 323 322 320 317 315 314 313 312 311 312
321 321 321 320 322 321 322 325 328 330 330 333 331 331 333 330 329 327 326 325 324 323 321 318 317 315 314 312 311 312 312 313
319 320 322 321 320 318 319 326 325 328 330 330 335 333 334 330 329 327 326 325 324 323 320 318 316 314 312 311 310 311 312 313
319 320 320 320 321 324 326 327 328 326 327 333 332 333 332 331 329 326 325 325 325 322 320 318 316 312 310 310 310 311 311 311
318 319 321 323 326 328 328 326 328 328 328 330 333 334 334 332 327 324 325 324 322 320 318 316 313 312 312 312 312 311 310 310
319 321 324 329 330 331 329 331 326 325 329 332 335 335 333 331 328 327 325 322 320 319 317 316 312 312 311 312 312 310 310 308
325 328 330 332 334 331 327 327 327 328 331 333 335 334 332 330 329 327 323 321 320 319 317 314 314 313 309 310 312 311 311 310
325 328 331 332 330 327 324 322 324 327 332 333 334 333 332 331 327 324 323 321 321 318 315 314 312 313 311 312 311 311 311 310
327 328 330 331 329 327 325 324 325 327 334 333 334 332 331 329 327 324 323 321 320 317 316 313 314 313 310 309 306 308 308 309
327 328 329 331 331 328 326 326 326 326 330 330 331 331 331 329 327 325 323 322 318 317 315 315 311 312 310 308 303 302 304 308
330 330 330 332 332 329 326 322 322 325 329 329 328 330 329 326 325 324 324 322 319 317 316 316 314 310 309 307 307 303 299 299
331 330 331 331 333 331 327 326 326 328 330 329 329 327 326 324 323 323 323 320 320 320 317 315 312 309 305 305 303 304 305 300
330 330 330 332 333 333 331 328 328 326 330 327 327 325 323 320 320 322 322 317 319 317 316 314 310 308 305 303 303 302 301 300
330 329 328 331 332 333 333 332 331 330 329 327 325 322 320 319 319 318 319 317 318 316 314 309 305 305 304 303 303 303 302 300
330 329 328 329 331 333 334 334 332 333 330 328 325 322 322 320 316 315 315 315 317 315 309 306 303 304 302 302 303 302 302 300

GFSFLT2_sfc_thetae_072.txt.gz
Theta_e
329 334 339 338 337 337 338 338 338 338 338 337 337 337 338 339 339 338 338 337 336 334 332 331 329 327 325 324 325 327 319 321
330 334 332 333 335 335 335 336 336 336 335 334 334 334 335 336 335 335 335 334 333 332 330 329 327 324 323 322 324 325 317 320
332 330 329 330 330 334 335 335 334 333 332 331 329 329 330 330 332 333 333 332 331 330 328 326 323 321 321 320 321 313 316 319
325 323 323 325 328 329 331 333 331 330 328 328 325 326 328 329 330 331 331 331 330 328 327 324 321 313 313 318 311 311 314 318
321 321 321 320 320 320 322 327 327 328 329 326 329 327 327 326 324 323 322 324 319 321 320 317 319 316 313 311 311 310 310 310
319 320 322 321 321 324 326 325 325 325 327 328 329 327 326 324 323 322 321 320 317 317 320 319 315 313 311 310 309 308 307 310
319 321 321 322 321 322 324 324 323 325 326 329 329 328 326 326 324 323 321 321 320 321 318 315 313 311 310 309 308 307 308 312
319 318 319 318 317 318 320 322 323 326 327 327 330 329 328 327 326 324 323 322 322 320 317 315 313 310 308 307 307 307 308 311
316 316 317 316 316 317 319 320 321 322 325 327 329 329 328 328 327 325 323 322 322 320 317 316 311 310 307 307 307 306 307 306
317 317 315 316 317 317 318 321 322 323 326 327 329 330 329 328 326 323 323 322 320 317 315 312 311 308 306 305 306 306 306 305
317 317 316 317 319 319 321 324 324 325 326 327 329 330 330 327 324 322 322 321 318 317 315 312 308 308 308 307 306 305 305 306
317 317 319 320 321 324 325 325 324 325 328 329 331 331 331 328 325 323 322 319 317 315 314 312 309 309 308 307 306 306 306 305
317 318 319 323 323 322 322 321 322 323 326 329 331 331 331 327 327 324 320 318 316 317 313 310 307 308 306 306 306 306 305 304
318 320 325 327 327 325 323 322 323 323 327 330 331 331 331 329 327 322 320 318 319 314 311 308 309 310 304 304 300 303 305 306
321 324 327 328 328 326 324 323 322 321 328 329 330 331 330 327 326 323 320 320 316 314 312 310 307 307 306 302 297 297 297 302
324 326 327 329 328 325 322 319 317 321 327 329 328 329 329 328 326 324 322 320 317 314 315 311 310 305 304 305 304 301 296 294
326 327 327 326 328 327 324 321 321 322 324 327 326 327 327 326 324 322 321 320 318 315 313 312 310 304 303 302 300 299 301 295
328 328 327 328 329 327 327 323 323 323 326 325 325 325 324 324 322 321 319 319 316 315 314 313 305 303 302 300 300 299 299 296
328 328 326 328 330 328 328 328 325 324 326 325 324 322 320 321 319 318 318 317 315 314 313 308 303 300 299 300 302 300 302 297
326 327 326 328 329 330 330 329 329 327 328 326 325 323 320 318 318 317 317 315 314 312 306 305 302 302 300 300 300 301 301 298

GFSFLT2_sfc_thetae_075.txt.gz
Theta_e
332 330 333 338 338 338 337 338 339 340 340 340 341 341 341 340 339 339 338 337 335 333 331 329 328 327 326 325 325 326 318 318
330 332 332 334 336 336 336 336 336 336 336 336 336 336 337 337 336 337 336 335 333 331 330 327 325 324 323 321 323 324 318 318
330 329 330 330 332 334 334 335 334 333 333 332 331 332 331 331 333 334 334 333 332 330 328 326 323 321 319 319 318 316 317 318
327 328 328 328 330 331 330 330 328 327 326 324 325 327 328 330 331 332 332 331 330 329 327 325 318 310 311 314 307 315 317 316
322 323 325 326 326 326 328 327 325 325 324 324 326 326 326 325 324 323 323 326 321 322 318 314 314 311 307 306 306 307 307 311
319 319 320 321 322 322 324 325 324 324 325 326 325 323 321 320 319 318 316 316 314 313 314 311 309 308 307 305 305 305 306 308
318 318 318 318 318 319 319 324 323 324 326 327 326 323 320 321 319 319 317 314 313 315 312 311 308 307 306 305 304 304 308 309
318 319 320 321 320 320 321 322 322 324 325 326 326 325 322 321 320 318 317 315 316 314 312 310 308 305 304 304 304 304 308 308
316 316 318 318 318 317 317 318 320 321 323 324 326 326 323 323 320 319 319 317 317 314 312 310 307 306 303 304 303 304 304 308
317 317 315 315 315 315 315 315 317 317 321 322 324 326 325 324 322 321 319 319 316 314 312 309 306 303 302 301 302 303 303 302
315 314 314 314 315 314 314 315 317 315 318 321 324 326 325 323 321 319 318 316 315 314 311 309 305 304 303 303 302 302 302 304
314 313 313 313 313 313 314 316 317 317 320 321 324 324 325 323 320 318 318 315 315 313 310 309 306 305 307 305 302 302 301 301
313 312 313 314 314 314 315 317 318 319 321 323 325 328 327 324 321 319 318 316 314 312 311 307 305 305 303 302 302 301 302 301
314 313 314 315 316 317 317 318 319 319 321 325 326 326 327 324 323 320 318 316 313 312 308 305 304 305 301 300 297 299 301 302
313 314 315 317 319 320 320 317 317 316 317 321 325 327 327 326 323 320 317 316 314 311 308 305 303 304 304 301 295 294 296 299
314 315 316 318 323 322 320 316 315 317 319 323 325 326 327 327 325 322 317 317 314 312 311 308 306 304 302 303 300 297 294 294
315 316 318 324 324 323 321 316 316 316 322 324 325 326 326 326 326 322 318 317 316 313 311 309 310 306 303 300 299 297 296 294
317 318 321 324 324 324 321 316 316 315 318 322 323 324 325 325 324 321 319 318 317 315 313 311 308 305 303 300 299 297 296 297
317 319 321 324 324 325 321 319 317 316 319 322 322 320 319 321 319 317 315 316 316 315 313 309 303 302 301 300 301 300 300 299
319 321 321 322 323 323 323 321 320 320 321 323 322 322 321 318 316 315 315 315 314 312 307 304 303 301 301 301 300 301 302 300

GFSFLT2_sfc_thetae_078.txt.gz
Theta_e
333 333 332 332 340 339 338 339 339 340 341 341 341 340 338 338 338 338 337 335 333 332 330 329 328 327 327 328 325 324 315 315
330 329 327 328 337 336 336 338 338 339 339 338 338 337 337 337 336 336 335 333 332 330 328 327 326 324 327 326 325 323 314 315
329 327 327 328 330 334 334 336 336 336 336 336 334 335 334 332 333 334 333 332 331 329 328 324 320 322 324 324 322 317 316 317
327 327 327 326 326 326 327 328 332 332 332 329 329 328 329 330 331 332 332 331 330 328 326 322 317 308 308 317 315 316 316 317
326 326 326 324 322 323 327 325 325 325 325 327 328 328 327 327 327 325 324 325 320 319 313 312 310 305 304 306 309 311 311 314
325 326 325 324 322 321 325 324 324 323 325 325 324 323 320 320 320 319 318 316 314 311 312 308 306 305 304 304 305 305 306 308
319 322 323 323 322 323 324 323 323 324 324 324 323 319 317 316 316 315 314 312 311 312 309 307 305 305 303 303 303 304 304 306
317 318 319 321 321 320 321 323 323 325 325 324 322 319 319 316 315 314 314 312 313 312 309 307 305 303 301 302 304 305 305 306
317 318 319 318 317 319 321 322 325 324 324 325 322 321 319 317 314 315 314 312 314 311 309 308 305 304 302 302 303 306 306 306
318 319 318 318 317 318 317 319 322 322 323 324 324 323 321 318 316 316 316 314 314 311 310 308 305 303 301 301 301 302 305 306
316 317 316 315 315 315 314 315 316 316 320 321 322 323 322 321 318 317 317 316 314 313 310 308 304 301 301 300 300 301 300 306
315 315 315 314 315 315 314 315 316 315 315 318 320 321 322 321 319 317 316 314 312 310 309 308 305 303 304 303 300 300 300 299
312 312 313 314 313 312 311 311 313 313 314 317 320 321 322 320 318 315 315 313 313 311 309 307 305 303 301 300 300 300 299 299
311 310 311 312 312 312 311 312 315 315 315 317 320 322 323 321 319 316 316 313 312 310 309 305 304 304 301 299 297 300 301 301
311 311 311 312 313 312 314 314 314 314 315 316 320 323 325 323 321 320 317 315 312 310 308 306 304 304 303 302 296 295 296 298
313 313 311 313 314 313 313 313 312 315 315 317 321 323 324 324 323 321 317 317 313 311 309 307 307 305 304 304 300 298 294 293
312 313 313 313 315 315 315 314 316 316 315 316 321 323 324 324 324 322 318 315 315 313 311 310 310 307 304 302 300 299 297 295
312 312 313 314 315 317 318 317 317 314 314 316 319 322 323 324 324 322 321 317 315 313 311 311 310 306 304 301 301 300 298 297
312 312 312 314 317 319 320 320 318 316 314 317 318 320 321 323 323 322 320 318 315 315 313 312 308 306 303 302 303 302 302 300
312 312 313 315 316 321 322 322 320 318 316 319 320 321 322 323 323 323 317 315 314 313 308 305 304 304 303 302 302 302 302 301

GFSFLT2_sfc_thetae_081.txt.gz
Theta_e
328 331 331 332 336 337 338 339 340 341 341 340 339 338 338 338 337 336 334 333 331 330 328 331 331 329 327 325 323 321 313 314
327 329 328 328 329 335 335 337 338 339 340 338 336 336 336 336 334 333 333 332 330 328 327 328 330 329 326 325 323 320 312 313
329 327 326 326 327 328 333 337 337 337 338 336 333 334 333 331 331 332 332 331 330 327 325 328 328 327 326 324 320 314 314 314
326 326 323 324 325 330 329 332 335 336 336 334 332 331 329 330 330 331 331 330 328 326 323 320 317 314 320 320 314 315 315 315
325 324 324 323 321 323 325 326 328 331 331 331 328 328 329 327 326 325 323 322 316 313 312 307 304 307 309 311 313 313 313 315
325 324 323 321 321 320 323 323 325 328 328 327 326 324 321 321 320 318 317 315 312 310 307 305 303 305 308 309 309 309 310 313
324 323 321 320 319 319 322 324 324 325 326 326 324 322 319 317 316 314 315 312 312 308 306 304 303 302 304 305 305 305 307 309
321 323 322 320 319 321 321 324 325 325 324 323 321 320 317 316 313 312 312 311 313 309 306 303 302 301 301 302 303 302 303 304
318 320 322 321 319 320 322 322 324 324 324 321 320 318 315 314 312 311 310 311 312 309 306 304 301 301 300 302 304 303 303 304
319 320 319 319 318 321 321 323 323 323 323 321 319 319 317 315 313 312 312 312 312 309 307 304 302 300 299 299 302 304 303 304
318 317 316 316 316 315 317 320 322 323 323 320 320 320 319 316 314 314 314 312 312 310 308 306 303 301 300 299 299 301 303 306
317 316 315 315 315 314 314 314 315 318 319 321 322 321 320 318 316 314 314 312 311 309 308 306 304 301 302 300 298 299 298 301
315 314 314 314 313 312 314 316 313 314 316 319 321 321 320 319 317 315 315 313 312 310 307 306 303 301 300 299 299 298 298 297
313 313 313 314 314 313 315 315 315 315 314 317 317 318 320 319 317 315 314 312 310 309 308 305 305 302 299 298 295 298 299 299
311 313 313 314 314 312 313 313 314 313 312 311 315 318 320 320 318 316 314 313 311 310 308 306 304 302 303 301 296 295 298 300
310 310 312 314 313 310 309 310 309 307 308 311 313 318 319 321 320 317 315 314 311 310 311 307 308 303 304 304 302 299 297 296
311 310 310 311 312 311 310 309 308 309 311 312 312 315 318 320 320 319 317 315 315 312 309 308 308 307 306 301 300 299 299 297
311 310 310 310 311 311 310 310 311 312 311 312 313 314 317 319 321 321 320 318 316 313 313 310 308 308 306 303 302 301 300 299
311 310 310 311 311 312 312 312 313 313 313 313 314 315 318 320 320 320 320 320 317 314 314 312 309 308 304 302 304 304 304 301
311 311 310 311 311 312 313 314 315 316 315 315 315 316 317 318 321 322 321 320 317 316 313 308 306 306 304 304 305 304 303 302

GFSFLT2_sfc_thetae_084.txt.gz
Theta_e
329 331 332 336 334 338 339 341 341 341 340 339 338 338 337 338 337 335 334 334 336 334 331 330 329 328 327 325 323 321 313 315
326 328 329 330 330 334 335 337 339 339 338 337 336 336 336 336 333 333 332 331 334 334 331 329 328 327 325 324 323 320 312 314
326 327 327 326 328 331 335 336 337 336 337 335 333 333 331 329 330 330 330 329 330 332 331 329 326 326 325 323 319 313 314 314
326 325 324 324 327 327 331 330 332 335 334 333 332 330 326 327 330 330 328 327 328 331 330 328 324 320 320 319 313 314 314 315
325 323 323 322 323 324 327 329 330 333 333 331 330 327 326 324 324 323 320 321 316 316 314 313 314 314 312 313 313 313 314 315
324 323 322 321 323 327 327 328 329 331 330 329 327 326 322 320 319 317 314 311 309 306 306 307 309 311 312 312 312 312 313 314
323 322 320 319 321 323 324 326 328 327 329 327 326 323 321 319 316 314 313 311 308 305 304 305 307 308 309 310 310 310 312 314
322 320 319 318 319 321 323 324 325 326 326 325 324 322 319 317 313 313 312 312 308 306 304 304 304 305 305 306 307 307 309 311
321 320 319 319 318 318 321 325 325 324 324 323 321 320 318 316 313 312 311 312 308 306 304 303 302 302 302 303 304 303 305 307
320 321 320 319 319 319 320 323 324 324 323 322 320 318 317 314 313 312 311 312 309 306 304 302 301 300 300 302 304 304 304 304
318 319 318 317 318 319 321 321 322 322 321 320 319 318 317 315 314 313 312 313 310 308 306 304 302 300 300 300 302 304 304 305
316 316 316 316 315 316 318 318 318 322 320 319 319 318 317 315 314 314 313 312 310 308 307 306 303 302 302 300 299 300 301 302
315 314 315 315 315 315 316 316 316 318 319 319 319 319 318 316 315 315 314 311 311 309 307 306 304 301 300 300 300 299 299 298
315 314 314 316 316 316 317 316 314 315 316 319 320 319 319 318 317 314 313 312 310 309 308 306 305 302 299 298 297 299 300 300
314 313 314 315 316 313 312 313 314 313 313 314 317 319 320 320 318 316 314 313 311 310 307 306 304 302 302 300 296 295 298 300
313 314 313 314 315 313 310 313 312 314 311 313 315 318 318 319 318 316 314 314 311 311 310 307 306 303 302 303 302 302 299 297
311 312 312 312 313 313 309 312 313 306 308 309 310 313 316 318 318 316 314 314 313 311 309 306 306 305 303 301 301 299 300 299
312 309 310 312 312 310 308 307 307 307 307 308 309 311 313 315 318 318 317 316 314 312 311 309 310 309 306 304 303 301 301 299
311 310 309 310 310 310 310 309 308 309 310 309 309 309 310 314 316 317 317 318 318 316 313 312 309 308 306 306 307 305 305 304
309 310 310 310 310 310 311 310 311 311 311 312 311 311 312 314 317 320 320 320 319 316 315 314 313 311 310 306 306 306 305 302

GFSFLT2_sfc_thetae_087.txt.gz
Theta_e
335 334 335 332 335 338 339 340 341 340 340 339 339 339 339 339 338 336 337 337 336 334 332 330 329 328 327 325 324 326 325 325
334 335 337 334 332 333 334 337 338 339 338 337 336 336 337 336 334 335 337 337 335 332 331 329 328 327 326 324 324 324 325 325
330 331 333 335 332 334 335 337 337 337 337 335 334 338 336 333 331 333 336 335 332 331 330 328 327 326 325 324 323 323 324 324
329 328 329 328 333 332 334 336 337 337 336 337 336 337 334 331 330 330 333 333 331 330 329 327 324 323 322 321 321 323 323 324
328 327 327 325 326 328 333 332 333 334 334 336 334 332 331 329 329 326 330 331 329 328 326 324 323 322 320 321 322 322 323 323
326 324 324 324 324 325 328 330 331 331 331 332 332 329 327 326 325 323 324 327 329 328 324 324 323 321 321 321 321 321 322 322
323 322 323 322 323 325 327 327 330 330 330 332 330 326 324 324 323 320 319 319 321 321 321 321 321 320 320 320 320 321 322 321
321 320 321 320 323 326 327 327 329 328 329 331 328 326 324 321 320 318 317 316 318 319 320 320 320 319 319 319 320 321 321 322
320 319 320 319 320 324 326 327 328 326 327 328 325 323 322 320 318 318 317 315 315 313 315 317 317 317 316 317 318 319 320 321
320 320 319 320 320 322 324 325 325 325 325 325 324 323 321 320 318 318 319 316 313 313 312 313 313 313 311 312 313 315 318 320
319 320 319 320 320 323 323 323 324 324 323 323 322 321 320 319 318 318 319 317 315 313 311 311 309 309 309 311 312 311 311 311
318 319 318 318 319 320 321 322 323 322 321 322 322 321 321 321 320 318 318 317 316 314 313 312 310 309 305 307 310 311 312 311
316 316 317 317 319 318 318 317 320 320 321 321 322 322 321 322 319 318 319 318 317 317 314 313 311 310 308 308 308 309 310 311
316 315 316 317 319 319 318 317 319 319 320 320 320 320 320 321 321 319 318 318 319 317 317 314 315 311 310 309 307 308 308 309
316 315 316 317 318 317 315 316 316 316 318 318 320 321 322 321 321 321 321 320 318 319 319 317 315 312 312 313 306 306 308 310
316 316 316 317 318 317 315 314 315 317 317 318 319 321 323 322 322 322 322 321 321 321 320 319 318 314 310 310 312 312 309 308
317 315 315 317 318 318 317 316 318 317 317 318 319 323 324 324 324 325 324 324 323 322 320 319 318 319 315 312 311 310 310 308
314 315 315 316 317 318 316 319 318 314 317 316 317 319 321 323 325 325 325 324 323 323 322 321 320 319 318 317 313 312 309 307
313 313 315 316 315 318 317 317 317 316 315 316 315 316 317 319 322 323 323 324 324 324 323 322 321 320 319 318 317 317 317 310
312 312 313 316 316 316 317 317 316 316 317 317 316 316 317 319 320 322 323 324 324 324 325 324 323 321 320 318 316 313 312 311

GFSFLT2_sfc_thetae_090.txt.gz
Theta_e
340 342 341 334 330 329 330 342 342 342 341 341 340 340 339 340 340 340 339 337 334 333 331 330 329 328 328 327 327 330 327 327
338 339 337 339 337 334 335 338 338 339 339 339 337 338 338 337 337 338 337 335 334 332 331 330 328 327 326 325 325 327 326 326
333 337 335 334 335 337 334 336 337 337 338 336 335 340 338 337 335 336 336 334 332 331 330 328 327 326 326 325 325 326 326 325
333 334 337 334 335 336 336 335 337 340 341 340 339 339 338 335 335 335 334 332 331 330 329 327 324 323 324 323 324 326 325 325
332 331 333 331 335 336 338 333 334 335 337 338 338 337 337 333 335 336 335 330 328 327 326 325 325 323 322 323 324 325 325 325
330 329 330 330 328 330 332 331 332 331 331 333 339 333 333 331 332 333 332 330 328 328 325 328 326 324 323 324 324 323 324 325
328 326 327 327 324 326 328 330 332 331 330 331 332 333 331 328 330 331 331 331 330 328 328 327 325 323 323 323 323 323 324 324
325 323 324 326 324 325 326 328 331 330 330 329 329 331 330 327 327 327 329 331 331 329 327 325 323 322 322 322 322 323 323 325
322 321 322 322 323 324 328 326 330 328 327 327 326 330 328 327 324 324 325 327 328 327 326 324 322 321 321 321 321 323 322 323
321 321 320 322 323 323 326 329 328 328 326 324 324 326 326 324 321 321 322 323 322 323 322 320 320 319 319 319 319 321 322 322
320 320 321 321 323 324 325 325 325 325 325 323 323 325 324 323 321 321 320 318 318 319 319 320 318 317 316 317 317 318 321 320
320 321 320 321 323 322 323 322 323 324 324 323 325 324 324 322 321 322 320 318 319 319 317 318 317 315 311 312 316 316 316 316
321 321 320 320 320 318 319 319 321 321 322 324 324 323 323 324 321 322 321 320 321 321 319 317 314 315 310 312 313 315 316 316
319 322 321 322 321 320 320 320 320 320 321 323 325 324 324 325 324 322 323 321 322 320 318 317 318 316 315 317 313 314 314 315
318 319 320 322 323 320 318 318 318 318 319 320 323 325 325 325 325 324 324 324 322 322 322 322 319 320 320 318 315 312 319 318
322 319 319 321 321 320 318 317 317 318 318 320 322 325 326 324 325 325 325 324 323 324 324 324 323 321 320 318 321 320 315 313
322 320 319 319 321 320 317 316 321 320 319 318 319 322 322 323 325 325 325 325 325 326 325 325 324 323 322 321 319 319 320 316
322 321 319 319 320 319 317 315 317 317 317 317 318 318 320 322 324 326 326 325 325 326 327 327 325 325 324 323 321 318 317 316
320 320 319 319 319 320 320 321 320 321 319 318 319 320 320 321 325 325 326 327 329 330 329 328 328 326 326 325 326 323 324 321
317 317 317 320 321 320 323 324 322 322 323 323 322 322 324 325 326 326 327 328 329 329 328 327 327 327 326 326 325 326 324 323